Regional Weather Roundup
Issued by NWS

Home | Current Version | Previous Version | Text Only | Print | Product List | Glossary Off
Versions: 1 2 3 4 5 6 7 8 9 10 11 12 13 14 15 16 17 18 19 20 21 22 23 24 25 26 27 28 29 30 31 32 33 34 35 36 37 38 39 40 41 42 43 44 45 46 47 48 49 50

413
ASUS45 KCYS 292010
RWRWY

WYOMING REGIONAL WEATHER ROUNDUP
NATIONAL WEATHER SERVICE CHEYENNE WY
200 PM MDT SAT APR 29 2017

NOTE:  "FAIR" INDICATES FEW OR NO CLOUDS BELOW 12,000 FEET
WITH NO SIGNIFICANT WEATHER AND/OR OBSTRUCTIONS TO VISIBILITY.

WYZ001-292100-
YELLOWSTONE NATIONAL PARK

CITY           SKY/WX    TMP DP  RH WIND       PRES   REMARKS
LK YELLOWSTONE   N/A     34  17  50 CALM      30.21F
W YELLOWSTONE  NOT AVBL

$$
WYZ002>013-054>058-071-098>099-292100-
NORTHERN WYOMING

CITY           SKY/WX    TMP DP  RH WIND       PRES   REMARKS
JACKSON        MOSUNNY   45  16  31 CALM      30.19S
CODY           FAIR      45  24  43 S7        30.23F
GREYBULL       PTSUNNY   51  26  37 SW10      30.21F
WORLAND        PTSUNNY   47  28  47 SW10G16   30.23F
SHERIDAN       FAIR      43  29  57 SE10      30.24F
BUFFALO        FAIR      38  26  62 S12       30.25F WCI  30
GILLETTE       FAIR      37  29  72 SW9       30.28S WCI  30
HULETT         CLOUDY    50  19  29 SW9       30.25F
NEWCASTLE      FAIR      45  19  36 NW8G18    30.26F

$$
WYZ014>020-022>026-101>103-292100-
CENTRAL WYOMING

CITY           SKY/WX    TMP DP  RH WIND       PRES   REMARKS
BIG PINEY      CLOUDY    39  19  44 SW12      30.21F WCI  32
PINEDALE       CLOUDY    37  14  38 S6        30.21S WCI  33
DUBOIS         FAIR      37  19  48 SE9       30.20S WCI  31
LANDER         FAIR      35  24  64 S8        30.25F WCI  29
RIVERTON       FAIR      36  24  62 S7        30.25F WCI  30
CASPER         FAIR      42  15  33 E8        30.24F
DOUGLAS        FAIR      39  22  50 E5        30.25F

$$
WYZ021-027>030-104>119-292100-
SOUTHERN WYOMING

CITY           SKY/WX    TMP DP  RH WIND       PRES   REMARKS
EVANSTON       CLOUDY    33  22  63 E9G16     30.22F WCI  25
KEMMERER         N/A     34  23  64 SE6       30.24S WCI  29
FORT BRIDGER   CLOUDY    36  26  66 SE9       30.25S WCI  29
ROCK SPRINGS   CLOUDY    39  20  46 NE13G23   30.20F WCI  31
DIXON            N/A     43  20  40 N10G23    30.13F
RAWLINS        PTSUNNY   35  21  56 E13       30.19F WCI  26
SARATOGA       CLOUDY    34  18  51 N9        30.15F WCI  26
LARAMIE        CLOUDY    27   9  46 NE8       30.16F WCI  19
CHEYENNE       CLOUDY    32  17  54 N17       30.16F WCI  21
TORRINGTON     FAIR      42  18  37 N16       30.21F
PINE BLUFFS    CLOUDY    36  19  51 N15G25    30.17F WCI  26

$$




USA.gov is the U.S. government's official web portal to all federal, state and local government web resources and services.